This is the latest recevied weather packets stored in our database for station/object DK4DO-10. If no packets are shown the sender has not sent any weather packets the latest 10 day(s).
| Time | Temp. | Humidity | Pressure | Rain* | Wind** | Luminosity | Snow |
|---|---|---|---|---|---|---|---|
| 1777815781 | 21.67° C | 26% | 1005.2 hPa | - | - | - | - |
| 1777815181 | 21.67° C | 27% | 1005.2 hPa | - | - | - | - |
| 1777814581 | 21.11° C | 26% | 1005.2 hPa | - | - | - | - |
| 1777813981 | 21.11° C | 25% | 1005.4 hPa | - | - | - | - |
| 1777813381 | 21.11° C | 26% | 1005.2 hPa | - | - | - | - |
| 1777812780 | 21.11° C | 26% | 1005.6 hPa | - | - | - | - |
| 1777812180 | 20.56° C | 25% | 1005.7 hPa | - | - | - | - |
| 1777811579 | 20.56° C | 25% | 1005.8 hPa | - | - | - | - |
| 1777810978 | 20.56° C | 24% | 1005.9 hPa | - | - | - | - |
| 1777810383 | 20.56° C | 23% | 1005.3 hPa | - | - | - | - |
| 1777809782 | 21.11° C | 22% | 1005.4 hPa | - | - | - | - |
| 1777809182 | 22.22° C | 21% | 1005.1 hPa | - | - | - | - |
| 1777808582 | 22.22° C | 22% | 1005.4 hPa | - | - | - | - |
| 1777807982 | 22.22° C | 24% | 1005.3 hPa | - | - | - | - |
| 1777807382 | 21.67° C | 25% | 1005.3 hPa | - | - | - | - |
| 1777806781 | 21.11° C | 24% | 1005.4 hPa | - | - | - | - |
| 1777806181 | 21.67° C | 24% | 1005.5 hPa | - | - | - | - |
| 1777805581 | 22.22° C | 23% | 1005.6 hPa | - | - | - | - |
| 1777804980 | 22.78° C | 24% | 1005.4 hPa | - | - | - | - |
| 1777804380 | 22.22° C | 25% | 1005.4 hPa | - | - | - | - |
| 1777803780 | 21.67° C | 25% | 1005.6 hPa | - | - | - | - |
| 1777803180 | 21.67° C | 24% | 1005.7 hPa | - | - | - | - |
| 1777802590 | 20.56° C | 27% | 1005.9 hPa | - | - | - | - |
| 1777801979 | 20° C | 27% | 1006.1 hPa | - | - | - | - |
| 1777801379 | 20° C | 31% | 1006 hPa | - | - | - | - |
* Rain since midnight (hover to see other rain measurements)
** Current wind speed in m/s (hover to see current wind gust speed)